Location: Bry
(48.8381°N, 2.5249°E)
Time: 20:16:23
(UTC+00:00)

Daily predictions for brighter satellites

Satellite Brightness Start Highest point End
(mag) Time Altitude Azimuth Time Altitude Azimuth Time Altitude Azimuth
Cosmos 2285 Rocket 4.2 17:30:16 10° NNW 17:36:34 52° ENE 17:42:47 10° SE
Cosmos 2233 Rocket 4.0 17:30:57 10° N 17:37:13 67° ENE 17:43:29 10° SSE
NOSS 0 Rocket 4.0 17:32:52 10° NNW 17:39:10 76° ENE 17:45:24 10° SE
ARIANE 6 FM1 Upper Stage 4.4 17:39:13 10° NNW 17:41:55 17° NNE 17:44:35 10° ENE
SMAP 4.3 17:37:54 10° S 17:42:23 47° W 17:46:54 10° NNW
Thor Agena Rocket 4.3 17:38:44 10° S 17:43:44 58° WSW 17:48:51 10° NNW
NOSS 3-4 (A) 4.0 17:38:28 10° NW 17:44:48 51° NE 17:52:16 10° ESE
NOSS 3-4 (C) 4.0 17:38:44 10° NW 17:45:05 51° NE 17:52:33 10° ESE
IRS-1C 4.4 17:40:06 10° S 17:45:24 76° WSW 17:50:45 10° NNW
Cosmos 1725 Rocket 4.3 17:39:44 10° NNW 17:46:00 78° W 17:52:15 10° S
Cosmos 2151 Rocket 3.6 17:45:12 10° N 17:49:43 88° ENE 17:54:13 10° S
Meteor 1-11 4.2 17:46:11 10° S 17:51:49 83° E 17:57:35 10° NNE
Radarsat Rocket 4.1 17:49:22 10° SE 17:55:06 57° ENE 18:01:21 10° NNW
Cosmos 1607 4.0 17:49:04 10° SW 17:55:12 82° NW 18:01:27 10° NE
Cosmos 1455 Rocket 3.5 17:53:19 10° N 17:57:19 36° ENE 18:01:17 10° SE
Cosmos 44 Rocket 4.3 17:54:47 10° S 17:58:55 28° ESE 18:03:10 10° ENE
YAOGAN 1 2.5 17:55:13 10° SSE 17:59:26 66° ENE 18:03:40 10° N
Cosmos 1975 Rocket 4.3 17:56:33 10° SE 17:59:41 20° E 18:02:49 10° NE
Cosmos 2228 4.1 17:56:46 10° NNE 18:00:08 23° ENE 18:03:30 10° ESE
PSLV R/B 3.8 17:56:23 10° SE 18:00:16 42° ENE 18:04:09 10° N
ATLAS 2AS CENTAUR R/B 4.1 17:54:52 10° WNW 18:00:43 28° NNW 18:06:30 10° NE
COSMO-SKYMED 1 2.8 17:56:54 10° NNE 18:00:49 41° E 18:04:42 10° S
Cosmos 2297 Rocket 2.4 17:56:14 10° S 18:01:39 50° ESE 18:07:07 10° NE
Cosmos 1782 4.2 17:59:40 10° NNE 18:01:55 16° ENE 18:03:11 13° E
Lacrosse 5 rocket 2.3 18:00:00 10° W 18:03:09 31° NNW 18:06:24 10° NE
DNEPR-1 R/B 4.4 18:00:17 10° NNW 18:04:46 40° NE 18:10:01 10° ESE
SPOT 1/Viking Rocket 3.9 18:01:20 10° S 18:06:26 68° WSW 18:11:34 10° NNW
Cosmos 2061 Rocket 4.1 18:01:16 10° N 18:07:41 87° W 18:13:58 10° S
Aureole 3 Rocket 2.5 18:03:53 10° N 18:07:49 58° ENE 18:10:58 10° SSE
CZ-2D R/B 3.2 18:05:22 10° SSE 18:09:16 71° ENE 18:13:17 10° N
Meteor 2-1 Rocket 4.4 18:04:16 10° NNW 18:10:06 85° W 18:16:01 10° S
Okean 1 Rocket 3.1 18:08:19 10° NNW 18:12:44 82° W 18:17:05 10° S
CZ-4C R/B 2.1 18:08:37 10° SW 18:12:54 66° NW 18:18:27 10° NE
SL-16 R/B 4.3 18:07:39 10° N 18:13:00 32° WNW 18:18:21 10° WSW
Cosmos 1356 Rocket 4.4 18:09:20 10° NNW 18:13:08 47° W 18:16:57 10° S
Cosmos 1464 Rocket 4.4 18:11:06 10° N 18:17:08 42° ENE 18:23:04 10° SE
Okean 2 Rocket 3.6 18:13:37 10° NNW 18:17:59 63° W 18:22:17 10° S
Cosmos 2344 4.3 18:12:42 10° SSE 18:19:09 27° ESE 18:23:43 15° ENE
Cosmos 2221 Rocket 3.6 18:15:19 10° S 18:19:47 89° WNW 18:24:19 10° N
Cosmos 1602 4.4 18:17:59 10° SE 18:19:21 19° ESE 18:19:21 19° ESE
USA 267 3.5 18:15:08 10° NE 18:21:34 67° NNW 18:28:02 10° WSW
SJ-6B 3.1 18:21:01 10° SE 18:24:11 34° ENE 18:27:19 10° N
Cosmos 2263 Rocket 3.2 18:25:55 10° SSE 18:30:16 23° ESE 18:31:44 21° E
Cosmos 1980 3.9 18:24:42 10° NNW 18:30:23 77° WSW 18:36:01 10° SSE
Cosmos 1025 Rocket 3.8 18:26:10 10° SSW 18:30:24 54° WNW 18:34:41 10° N
Sich 1 Rocket 4.4 18:28:30 10° NNW 18:32:58 56° W 18:37:24 10° S
COSMOS 2428 4.4 18:28:18 10° NW 18:33:28 36° WSW 18:38:36 10° S
Meteor 1-31 Rocket 4.0 18:36:36 21° NE 18:36:36 21° NE 18:38:27 10° NNE
Cosmos 2237 Rocket 2.4 18:29:59 10° NNW 18:35:40 76° WSW 18:41:21 10° SSE
SKYMED 2 4.5 18:33:13 10° N 18:37:26 50° WNW 18:41:38 10° SW
Meteor 1-27 4.2 18:32:25 10° N 18:38:14 84° ENE 18:44:04 10° SSE
SeaSat 1 4.2 18:37:34 10° S 18:42:00 34° WSW 18:46:28 10° NW
Cosmos 1570 Rocket 3.9 18:37:41 10° SSW 18:42:58 83° ESE 18:48:14 10° NNE
Resurs 01 Rocket 1.5 18:39:04 10° SSE 18:43:28 86° ENE 18:47:54 10° NNW
SPOT 5 3.4 18:45:52 26° ESE 18:47:52 38° ENE 18:52:33 10° N
NOSS 3-3 (C) 4.3 18:44:33 10° WSW 18:49:49 59° NW 18:55:58 11° NE
DMSP B5D1-3 4.4 18:48:06 10° NNE 18:53:15 80° ESE 18:58:22 10° SSW
Tiangong -0.2 18:53:22 10° SW 18:55:41 19° S 18:55:41 19° S
Cosmos 2227 Rocket 2.1 18:55:22 10° SSW 19:00:54 62° ESE 19:05:16 17° NE
SL-16 R/B 2.3 18:56:00 10° NNW 19:01:35 57° ENE 19:03:58 33° ESE
Cosmos 773 Rocket 4.0 18:58:34 10° SSW 19:03:51 86° WNW 19:09:11 10° NNE
Cosmos 1346 Rocket 3.3 19:00:27 10° S 19:02:49 37° SSE 19:02:49 37° SSE
Cosmos 2208 Rocket 3.9 18:58:50 10° SSW 19:04:04 89° SE 19:09:27 10° NNE
Tsikada Rocket 4.3 19:02:13 10° SSE 19:07:49 39° E 19:13:29 10° NNE
CZ-4 R/B 2.9 19:17:56 22° N 19:17:56 22° N 19:19:29 10° N
ARIANE 6 FM1 Upper Stage 2.9 19:17:45 10° NW 19:21:05 51° N 19:21:05 51° N
CZ-4B R/B 3.6 19:26:09 41° NE 19:26:09 41° NE 19:30:24 10° N
Terra 3.4 19:30:49 22° NNE 19:30:49 22° NNE 19:32:47 10° N
Cosmos 1816 Rocket 4.5 19:23:44 10° S 19:29:54 84° W 19:36:10 10° N
Cosmos 1544 Rocket 3.4 19:25:39 10° N 19:30:02 90° SSW 19:30:03 89° S
CZ-4B DEB 4.1 19:29:06 56° ESE 19:30:05 67° ENE 19:35:31 10° N
CSL-04 Debris 4.0 19:30:41 38° SSE 19:32:53 84° ENE 19:38:20 10° NNW
BREEZE-M (TANK) 4.3 19:29:55 10° W 19:33:05 37° SSW 19:36:14 24° SSE
Cosmos 2034 Rocket 3.9 19:28:52 10° N 19:35:04 84° W 19:41:16 10° S
Cosmos 1782 3.7 19:33:28 10° NNW 19:36:53 42° W 19:37:19 39° WSW
Cosmos 1975 Rocket 4.1 19:32:54 10° SSW 19:37:04 45° WNW 19:41:15 10° N
Cosmos 2228 4.4 19:33:21 10° NNW 19:37:13 37° W 19:41:06 10° SSW
CSL-04 Rocket 3.5 19:35:11 35° S 19:37:31 84° WSW 19:42:50 10° NNW
TSX-5 4.2 19:32:30 10° NNW 19:37:23 73° N 19:37:23 73° N
RESURS DK-1 4.5 19:34:31 10° NNW 19:35:40 17° N 19:35:40 17° N
Cosmos 44 Rocket 3.9 19:35:11 10° SW 19:40:02 55° NW 19:41:49 36° NNE
Lacrosse 5 rocket 3.2 19:37:55 10° NW 19:39:50 20° NNW 19:39:50 20° NNW
MOS 1 4.3 19:41:21 61° NE 19:41:21 61° NE 19:46:43 10° N
Cosmos 1634 Rocket 3.9 19:36:10 10° N 19:42:29 66° ENE 19:43:03 63° ESE
Cosmos 2297 Rocket 3.7 19:40:47 10° WSW 19:45:54 34° NW 19:51:02 10° NNE
Cosmos 1943 3.7 19:43:56 10° NNW 19:48:32 47° NNE 19:48:32 47° NNE
ATLAS 2AS CENTAUR R/B 4.1 19:48:28 10° NW 19:53:50 24° N 19:55:21 22° NNE
BREEZE-M DEB (TANK) 3.7 19:37:56 10° W 19:55:34 74° S 19:56:30 64° SE
ERS-1 Rocket 4.0 20:02:08 37° N 20:02:08 37° N 20:05:08 10° NNW
CZ-4C R/B 3.9 19:58:16 10° WNW 20:02:18 24° NNW 20:04:22 20° NNE
BREEZE-M DEB (TANK) 4.2 19:57:55 10° SW 20:02:40 66° SE 20:04:47 53° E
USA 267 4.0 20:02:29 38° NNE 20:04:04 44° N 20:10:12 10° WNW
Cosmos 2279 Rocket 4.4 19:58:42 10° N 20:03:20 50° NNE 20:03:20 50° NNE
Cosmos 2263 Rocket 2.5 20:08:01 10° SW 20:13:31 66° WNW 20:13:31 66° WNW
SPOT 5 4.4 20:24:54 30° WSW 20:25:50 32° W 20:30:24 10° NNW
Cosmos 2344 3.5 20:25:10 10° SW 20:32:48 70° NW 20:33:48 63° N
SL-16 R/B 3.9 20:40:40 10° NW 20:45:20 27° WSW 20:45:53 27° WSW
Cosmos 2227 Rocket 3.9 20:40:31 10° WSW 20:45:22 28° NW 20:47:09 24° NNW
